This is the latest recevied weather packets stored in our database for station/object AF5AA. If no packets are shown the sender has not sent any weather packets the latest 10 day(s).
| Time | Temp. | Humidity | Pressure | Rain* | Wind** | Luminosity | Snow |
|---|---|---|---|---|---|---|---|
| 1777558091 | 16.11° C | 98% | 1012.6 hPa | 0 mm | - | 21 W/m² | - |
| 1777557787 | 16.11° C | 98% | 1012.4 hPa | 0 mm | - | 17 W/m² | - |
| 1777557484 | 16.11° C | 99% | 1012.3 hPa | 0 mm | - | 23 W/m² | - |
| 1777557180 | 16.11° C | 99% | 1012.6 hPa | 0 mm | - | 21 W/m² | - |
| 1777556876 | 16.11° C | 99% | 1012.9 hPa | 0 mm | - | 23 W/m² | - |
| 1777556572 | 16.11° C | 99% | 1012.8 hPa | 0 mm | - | 18 W/m² | - |
| 1777556272 | 15.56° C | 99% | 1012.9 hPa | 0 mm | - | 15 W/m² | - |
| 1777555968 | 15.56° C | 99% | 1013 hPa | 0 mm | - | 15 W/m² | - |
| 1777555663 | 16.11° C | 99% | 1013.1 hPa | 0 mm | - | 16 W/m² | - |
| 1777555360 | 16.11° C | 99% | 1013.3 hPa | 0 mm | - | 15 W/m² | - |
| 1777555056 | 15.56° C | 99% | 1013.2 hPa | 0 mm | - | 15 W/m² | - |
| 1777554754 | 16.11° C | 99% | 1013.1 hPa | 0 mm | - | 13 W/m² | - |
| 1777554451 | 16.11° C | 99% | 1013.3 hPa | 0 mm | - | 14 W/m² | - |
| 1777554147 | 15.56° C | 99% | 1013.3 hPa | 0 mm | - | 11 W/m² | - |
| 1777553845 | 15.56° C | 99% | 1012.8 hPa | 0 mm | - | 11 W/m² | - |
| 1777553541 | 16.11° C | 99% | 1012.8 hPa | 0 mm | - | 8 W/m² | - |
| 1777553237 | 16.11° C | 99% | 1012.4 hPa | 0 mm | - | 7 W/m² | - |
| 1777552933 | 16.11° C | 99% | 1012.4 hPa | 0 mm | - | 6 W/m² | - |
| 1777552627 | 16.11° C | 99% | 1012.5 hPa | 0 mm | - | 7 W/m² | - |
| 1777552325 | 16.11° C | 99% | 1012.6 hPa | 0 mm | - | 4 W/m² | - |
| 1777552021 | 16.11° C | 99% | 1012.8 hPa | 0 mm | - | 3 W/m² | - |
| 1777551718 | 16.11° C | 99% | 1012.5 hPa | 0 mm | - | 3 W/m² | - |
| 1777551415 | 16.11° C | 99% | 1012.5 hPa | 0 mm | - | 3 W/m² | - |
| 1777551112 | 16.11° C | 99% | 1012.4 hPa | 1.78 mm | - | 4 W/m² | - |
| 1777550810 | 15.56° C | 99% | 1012.2 hPa | 1.78 mm | - | 3 W/m² | - |
* Rain latest hour (hover to see other rain measurements)
** Current wind speed in m/s (hover to see current wind gust speed)